Regional Weather Roundup
Issued by NWS

Home | Current Version | Previous Version | Text Only | Print | Product List | Glossary On
Versions: 1 2 3 4 5 6 7 8 9 10 11 12 13 14 15 16 17 18 19 20 21 22 23 24 25 26 27 28 29 30 31 32 33 34 35 36 37 38 39 40 41 42 43 44 45 46 47 48 49 50
000
ASUS44 KLIX 062210
RWRLA
LOUISIANA WEATHER ROUNDUP
NATIONAL WEATHER SERVICE NEW ORLEANS LA
400 PM CST FRI MAR 06 2015

NOTE: "FAIR" INDICATES FEW OR NO CLOUDS BELOW 12,000 FEET WITH NO
      SIGNIFICANT WEATHER AND/OR OBSTRUCTIONS TO VISIBILITY.
      SKY/WX - SKY CONDITION AND SIGNIFICANT WEATHER.
      TMP - AIR TEMPERATURE.    DP   - DEWPOINT TEMPERATURE.
      RH  - RELATIVE HUMIDITY.  PRES - PRESSURE.
      HX  - HEAT INDEX.         WCI  - WIND CHILL INDEX.

*  THESE STATIONS ARE NOT NWS OR FAA STATIONS AND ARE NOT UNDER
   NWS QUALITY CONTROL.

LAZ040-048-061>063-065-066-069-062300-
SOUTHEAST LOUISIANA

CITY           SKY/WX    TMP DP  RH WIND       PRES   REMARKS
N.O. AUDUBON     N/A     53  22  30 MISG        N/A
N.O. INTL ARPT PTSUNNY   52  19  27 N8        30.41F
N.O. LAKEFRONT PTSUNNY   54  21  27 N10       30.41F
SLIDELL        MOSUNNY   55  15  20 NE7       30.40S
BATON ROUGE    PTSUNNY   54  15  21 N8        30.43S
BOOTHVILLE     PTSUNNY   50  27  40 N10G18    30.40S
BELLE CHASSE   PTSUNNY   52  17  25 N7        30.40F
BOGALUSA*        N/A     56  15  20 N10       30.42S
GALLIANO*      MOCLDY    51  22  32 NW14      30.41S
NEW ROADS*     FAIR      49  25  38 NW13      30.45R
GONZALES*      FAIR      55  14  20 N8        30.41F
HAMMOND*       MOSUNNY   55   9  15 N8        30.43R
HOUMA*         SUNNY     52  21  30 N9        30.41F
PORT FOURCHON* CLEAR     52  23  32 NE15      30.43S

$$

LAZ041-044-053-054-062300-
SOUTHWEST LOUISIANA

CITY           SKY/WX    TMP DP  RH WIND       PRES   REMARKS
LAKE CHARLES   PTSUNNY   53  15  22 VRB3      30.46S
LAFAYETTE      PTSUNNY   49  20  31 NE10      30.46S
PATTERSON      PTSUNNY   52  18  25 N10       30.44S
SALT POINT       N/A     52  16  24 N9        30.42S
NEW IBERIA     PTSUNNY   53  22  29 N10       30.45F
CHENAULT AIRPK NOT AVBL

$$

LAZ027-028-062300-
CENTRAL LOUISIANA

CITY           SKY/WX    TMP DP  RH WIND       PRES   REMARKS
FORT POLK      SUNNY     51  16  25 NE6       30.45F
ALEXANDRIA INT SUNNY     52  17  25 N9G17     30.46F
ALEXANDRIA     SUNNY     52  16  24 N8        30.47F

$$

LAZ001-002-062300-
NORTHWEST LOUISIANA

CITY           SKY/WX    TMP DP  RH WIND       PRES   REMARKS
SHREVEPORT     MOSUNNY   51  19  28 N6        30.48F
BARKSDALE AFB  SUNNY     51  19  28 VRB7      30.48F
DTN SHREVEPORT SUNNY     50  15  24 NE6       30.49F

$$

LAZ014-016-062300-
NORTHEAST LOUISIANA

CITY           SKY/WX    TMP DP  RH WIND       PRES   REMARKS
MONROE         SUNNY     45  23  42 NE8       30.53F
TALLULAH       SUNNY     44  20  38 N12       30.51F

$$




USA.gov is the U.S. government's official web portal to all federal, state and local government web resources and services.